SCP
0 0 0 0 0 0 0 0 0 0 0 0 0 0 0 0 0 0 0 0 0 0 0 0 0 0 0 0 0 0 0 0 0 0 0 0 0 0
0 0 0 0 0 0 0 0 0 0 0 0 0 0 0 0 0 0 0 0 0 0 0 0 0 0 0 0 0 0 0 0 0 0 0 0 0 0
0 0 0 0 0 0 0 0 0 0 0 0 0 0 0 0 0 0 0 0 0 0 0 0 0 0 0 0 0 0 0 0 0 0 0 0 0 0
0 0 0 0 0 0 0 0 0 0 0 0 0 0 0 0 0 0 0 0 0 0 0 0 0 0 0 0 0 0 0 0 0 0 0 0 0 0
0 0 0 0 0 0 0 0 0 0 0 0 0 0 0 0 0 0 0 0 0 0 0 0 0 0 0 0 0 0 0 0 0 0 0 0 0 0
0 0 0 0 0 0 0 0 0 0 0 0 0 0 0 0 0 0 0 0 0 0 0 0 0 0 0 0 0 0 0 0 0 0 0 0 0 0
0 0 0 0 0 0 0 0 0 0 0 0 0 0 0 0 0 0 0 0 0 0 0 0 0 0 0 0 0 0 0 0 0 0 0 0 0 0
0 0 0 0 0 0 0 0 0 0 0 0 0 0 0 0 0 0 0 0 0 0 0 0 0 0 0 0 0 0 0 0 0 0 0 0 0 0
0 0 0 0 0 0 0 0 0 0 0 0 0 0 0 0 0 0 0 0 0 0 0 0 0 0 0 0 0 0 0 0 0 0 0 0 0 0
0 0 0 0 0 0 0 0 0 0 0 0 0 0 0 0 0 0 0 0 0 0 0 0 0 0 0 0 0 0 0 0 0 0 0 0 0 0
0 0 0 0 0 0 0 0 0 0 0 0 0 0 0 0 0 0 0 0 0 0 0 0 0 0 0 0 0 0 0 0 0 0 0 0 0 0
0 0 0 0 0 0 0 0 0 0 0 0 0 0 0 0 0 0 0 0 0 0 0 0 0 0 0 0 0 0 0 0 0 0 0 0 0 0
0 0 0 0 0 0 0 0 0 0 0 0 0 0 0 0 0 0 0 0 0 0 0 0 0 0 0 0 0 0 0 0 0 0 0 0 0 0
0 0 0 0 0 0 0 0 0 0 0 0 0 0 0 0 0 0 0 0 0 0 0 0 0 0 0 0 0 0 0 0 0 0 0 0 0 0
0 0 0 0 0 0 0 0 0 0 0 0 0 0 0 0 0 0 0 0 0 0 0 0 0 0 0 0 0 0 0 0 0 0 0 0 0 0
0 0 0 0 0 0 0 0 0 0 0 0 0 0 0 0 0 0 0 0 0 0 0 0 0 0 0 0 0 0 0 0 0 0 0 0 0 0
0 0 0 0 0 0 0 0 0 0 0 0 0 0 0 0 0 0 0 0 0 0 0 0 0 0 0 0 0 0 0 0 0 0 0 0 0 0
0 0 0 0 0 0 0 0 0 0 0 0 0 0 0 0 0 0 0 0 0 0 0 0 0 0 0 0 0 0 0 0 0 0 0 0 0 0
0 0 0 0 0 0 0 0 0 0 0 0 0 0 0 0 0 0 0 0 0 0 0 0 0 0 0 0 0 0 0 0 0 0 0 0 0 0
0 0 0 0 0 0 0 0 0 0 0 0 0 0 0 0 0 0 0 0 0 0 0 0 0 0 0 0 0 0 0 0 0 0 0 0 0 0
0 0 0 0 0 0 0 0 0 0 0 0 0 0 0 0 0 0 0 0 0 0 0 0 0 0 0 0 0 0 0 0 0 0 0 0 0 0
0 0 0 0 0 0 0 0 0 0 0 0 0 0 0 0 0 0 0 0 0 0 0 0 0 0 0 0 0 0 0 0 0 0 0 0 0 0
0 0 0 0 0 0 0 0 0 0 0 0 0 0 0 0 0 0 0 0 0 0 0 0 0 0 0 0 0 0 0 0 0 0 0 0 0 0
Wind_Speed
6 6 4 3 3 3 2 3 3 2 3 2 1 1 1 1 4 2 3 9 11 11 12 13 14 15 16 16 17 18 18 18 19 19 20 20 20 20
5 6 5 3 3 3 3 2 3 3 3 2 1 1 1 2 4 3 3 9 10 11 12 13 14 15 15 16 17 17 17 18 18 19 20 20 20 19
7 7 6 5 4 3 3 3 2 3 3 2 1 0 1 2 3 3 3 3 5 11 12 13 14 14 15 16 16 17 17 18 18 19 19 19 19 19
9 8 7 5 5 4 3 3 3 3 3 3 1 0 1 1 2 3 4 4 4 9 12 13 13 14 15 15 16 17 17 17 17 18 18 18 18 19
9 9 8 7 6 4 4 4 3 2 2 2 1 0 1 1 2 3 4 3 5 6 10 11 13 14 14 15 16 16 16 16 17 17 17 17 18 18
8 8 8 8 8 7 5 5 4 3 2 1 1 0 1 1 2 3 4 4 4 4 7 9 11 13 15 15 15 15 16 16 17 17 17 18 18 18
7 6 6 7 8 7 5 5 5 3 2 1 1 0 1 1 2 2 3 4 4 2 5 5 5 4 7 11 13 15 16 16 16 17 17 18 18 18
8 6 6 7 8 9 8 8 7 5 4 3 1 1 1 1 1 2 2 3 4 3 4 5 3 4 5 4 12 15 15 16 17 17 18 18 18 18
9 8 6 6 8 6 7 8 6 5 5 4 3 2 1 1 0 1 1 2 3 4 3 4 3 4 5 7 14 14 15 16 17 17 17 18 18 18
8 9 9 8 7 9 7 6 4 3 4 3 3 2 1 1 1 0 1 2 3 3 1 3 4 5 6 5 10 14 16 17 17 18 18 18 18 17
7 8 9 8 12 13 9 7 5 4 5 7 6 5 5 4 4 2 2 3 3 2 1 2 4 6 5 3 6 14 17 17 18 18 18 18 18 16
6 7 10 10 14 14 8 8 7 4 4 4 5 5 4 4 5 2 1 1 2 3 2 3 3 5 6 4 4 6 7 13 18 17 17 18 18 9
7 5 6 13 14 13 10 6 7 7 5 4 3 2 3 2 2 2 1 1 1 2 3 2 2 3 3 6 6 4 4 6 7 8 13 18 18 12
8 6 7 14 14 12 8 9 11 9 4 3 2 2 1 2 2 2 2 1 2 4 4 2 2 3 4 6 6 6 6 6 5 6 6 14 14 15
8 13 14 15 13 9 10 12 9 5 4 3 2 1 0 0 1 2 2 2 3 3 3 2 3 4 4 5 6 5 6 6 5 6 7 8 7 7
9 13 16 14 10 10 9 6 4 4 4 3 2 1 0 1 1 1 2 3 3 4 4 4 4 4 4 5 5 6 5 6 7 8 8 8 6 5
11 8 6 6 5 5 4 4 3 3 3 2 2 1 1 1 1 2 1 2 2 3 5 5 5 5 7 6 4 5 6 6 6 8 9 9 7 5
13 8 7 6 6 6 5 4 3 3 2 2 2 1 1 1 1 2 2 1 2 3 4 4 5 6 4 4 6 5 5 5 7 8 7 7 9 7
8 7 7 7 6 5 5 4 3 2 2 2 2 1 1 1 1 1 2 2 3 3 3 3 3 4 6 7 7 4 5 7 8 7 6 6 8 9
6 7 7 6 6 6 5 4 4 3 3 2 2 2 1 1 1 1 1 2 3 3 4 4 3 3 4 5 6 7 10 8 7 7 7 7 7 10
7 6 6 6 6 6 5 5 4 4 3 3 2 2 1 1 0 1 1 3 3 2 4 5 5 9 3 2 5 6 7 10 10 7 7 7 6 5
7 7 6 6 6 6 5 5 4 4 3 3 2 2 1 1 1 1 1 2 2 2 4 4 5 4 2 2 5 7 7 9 11 12 9 7 5 6
8 7 7 7 6 6 5 6 5 4 3 3 2 2 2 1 0 1 1 1 2 3 4 4 4 3 3 3 4 5 8 9 7 7 6 11 14 12
Wind_Direction
187 185 187 188 179 181 170 166 176 246 275 270 293 340 336 339 349 349 328 331 335 332 332 334 334 333 332 331 330 327 326 325 325 323 322 322 321 322
180 181 187 181 173 170 172 171 176 191 241 257 239 292 350 356 356 352 330 341 335 331 333 335 335 334 335 333 330 328 328 328 327 326 324 324 325 326
178 181 188 176 173 174 166 165 178 176 222 261 248 329 359 347 343 343 337 335 330 331 334 335 336 337 336 335 334 333 332 330 328 328 328 329 328 327
181 179 185 172 176 170 167 175 183 182 191 236 255 287 313 335 334 333 340 340 323 328 338 339 340 341 339 337 335 334 334 333 333 333 332 330 330 330
179 180 181 171 179 172 167 171 175 163 168 187 229 252 320 346 340 332 331 326 328 332 340 341 339 342 342 340 338 339 340 339 336 335 334 334 334 332
175 176 175 177 181 174 169 171 158 148 144 153 187 276 301 336 336 328 332 335 326 330 338 337 339 346 345 342 341 341 341 340 338 338 337 336 335 332
162 164 167 166 166 162 158 163 154 149 142 141 149 41 300 333 326 318 317 324 314 328 328 321 324 328 335 336 337 336 339 340 338 337 335 335 334 333
157 152 148 149 150 148 148 149 150 150 157 151 164 211 258 276 288 327 323 338 317 330 330 311 320 321 322 317 328 337 340 341 340 338 336 335 334 332
156 153 147 145 141 135 132 124 122 120 133 149 158 194 224 236 236 317 311 306 283 303 326 301 314 315 317 324 331 339 343 342 339 337 335 334 332 331
154 155 151 149 148 137 125 115 104 95 107 112 136 155 155 154 143 141 272 303 288 295 339 301 310 311 315 313 324 339 343 341 338 336 334 332 331 331
143 147 148 149 150 140 132 127 113 93 89 97 95 89 77 71 71 62 21 7 331 315 353 319 310 315 305 298 315 332 338 337 337 336 335 334 332 334
134 142 148 148 150 145 140 139 137 133 114 93 76 63 54 47 48 62 80 26 329 305 324 331 314 330 319 300 302 313 323 328 334 334 335 335 333 332
145 145 149 150 148 146 141 141 143 135 123 111 95 73 54 40 26 24 48 147 208 264 294 333 310 316 294 304 306 304 310 315 320 322 331 333 333 333
148 147 146 147 143 139 134 133 130 122 115 111 101 78 46 14 356 354 352 322 237 245 271 280 270 289 300 301 297 307 312 307 310 316 319 326 330 331
140 144 142 141 135 131 130 132 127 120 122 121 119 99 16 316 351 357 356 349 329 298 293 278 268 276 270 274 290 301 313 312 317 321 319 321 317 317
127 133 132 128 118 121 124 120 113 127 130 133 127 110 77 42 30 7 355 349 346 326 317 308 295 283 276 273 273 287 295 300 314 321 319 313 308 302
129 119 119 124 121 117 111 110 111 116 112 111 115 112 78 40 13 7 7 1 345 318 320 321 316 297 267 260 278 284 297 302 306 317 321 317 309 303
132 138 143 145 146 146 143 135 128 131 128 124 121 121 106 56 2 355 0 353 326 313 313 316 332 337 334 297 239 273 294 300 310 315 314 313 310 311
134 146 151 153 151 151 150 149 150 144 135 133 131 127 109 71 20 353 348 339 326 317 313 317 337 350 345 331 309 285 297 311 315 315 309 305 300 303
141 150 153 154 152 152 153 149 143 139 139 139 135 132 123 100 24 341 333 322 321 322 321 323 328 330 316 303 300 298 304 307 311 312 310 305 289 291
151 151 151 151 151 150 149 148 149 154 150 146 144 145 145 125 20 314 313 324 339 324 321 313 301 318 298 292 300 300 302 315 318 309 307 313 312 311
153 153 151 149 149 149 148 147 148 151 149 147 153 157 160 159 195 275 303 315 314 307 301 299 311 327 340 322 312 308 309 316 323 327 319 310 315 318
154 151 149 149 148 147 147 150 152 156 156 156 160 165 164 167 212 258 282 302 316 321 321 321 329 335 319 297 302 305 311 320 323 329 321 328 329 315